GFSSE_sfc_temp_000.txt.gz
Temp
90 93 79 79 79 79 79 79 78 78 78 78 78 77 77 77 77 77 77 76 77 78 77 78 78 79 79 79 79 79 79 80 81 81 82 81 80 80 79 79 80 89 79
94 94 78 79 79 79 79 79 78 78 78 78 78 77 77 77 77 76 76 77 77 77 78 78 78 79 79 79 79 79 79 79 79 80 81 80 80 80 79 80 82 85 79
92 93 88 78 79 79 78 78 78 78 77 78 78 77 77 76 76 76 76 76 77 77 78 78 79 79 79 79 79 79 79 79 78 79 80 81 85 79 79 80 80 79 78
92 90 91 79 78 79 78 78 77 77 77 77 77 77 77 77 76 76 76 76 76 77 77 78 78 79 79 79 79 78 78 78 77 78 83 85 79 78 79 79 80 79 78
92 92 90 80 78 78 78 77 77 77 77 77 77 77 77 77 76 76 76 75 76 77 77 78 78 79 79 79 79 78 78 77 77 76 81 75 74 77 77 78 79 79 79
93 92 87 76 77 78 78 78 77 77 77 77 77 77 77 76 76 76 76 75 75 76 76 77 78 78 79 78 78 78 77 77 76 79 74 74 75 77 76 77 78 78 78
92 91 91 76 76 77 77 78 77 77 77 77 76 77 77 76 76 75 75 75 75 75 76 76 77 77 77 78 78 78 77 76 80 80 74 73 72 73 75 76 78 78 77
89 87 87 79 75 74 75 75 74 74 74 74 73 73 74 75 76 76 74 75 75 75 75 75 76 77 75 77 77 77 76 76 79 79 72 73 72 74 76 76 77 76 77
87 87 86 85 83 74 73 72 72 72 72 71 71 72 72 73 74 75 74 74 75 75 74 75 75 75 75 76 77 76 75 76 80 80 73 72 74 76 78 78 77 77 77
87 88 85 84 86 82 82 75 71 70 70 69 70 70 70 71 71 74 73 73 75 73 74 75 75 75 75 74 75 76 75 76 80 81 71 70 73 76 76 76 77 77 77
87 86 85 85 83 80 81 79 72 72 70 69 69 69 70 75 77 77 74 74 74 74 74 75 75 74 75 74 75 74 76 76 79 82 76 72 72 76 77 77 76 76 77
83 85 85 80 79 78 80 78 77 75 71 69 69 68 70 72 74 76 74 72 72 73 74 74 74 74 75 80 82 77 85 77 80 79 81 74 74 76 75 75 74 76 76
82 84 84 78 77 76 79 78 78 72 72 71 70 71 69 71 72 73 78 77 76 74 77 77 79 80 81 78 84 85 87 81 79 77 78 75 74 73 75 75 75 76 76
81 81 80 79 76 75 76 78 74 70 72 71 74 70 71 73 72 69 70 76 75 76 75 75 81 79 77 78 84 85 85 81 78 76 77 74 74 74 74 74 74 78 75
80 79 79 77 75 74 73 76 73 72 75 75 73 72 74 73 67 71 71 73 76 77 75 74 77 78 76 77 82 83 83 79 78 75 78 74 73 72 75 76 76 77 77
78 78 78 77 75 75 74 73 72 73 74 76 73 73 72 70 67 69 73 69 69 75 75 76 78 77 77 78 81 82 81 78 76 75 79 76 72 72 73 74 76 77 76
80 77 77 76 76 75 74 75 74 75 73 75 75 74 74 72 70 69 71 72 76 74 75 77 75 77 77 79 79 81 81 78 76 75 76 78 71 72 72 74 76 77 77
78 76 77 78 77 76 75 75 76 74 73 69 70 74 74 73 72 70 69 70 71 73 74 76 79 78 79 79 79 82 77 75 76 74 76 76 72 70 72 74 76 76 77
77 76 76 77 77 76 76 76 75 74 74 72 68 67 72 73 74 71 70 72 72 73 72 74 78 78 78 78 79 81 73 73 74 73 70 73 72 70 70 73 75 75 76
77 76 76 77 76 75 78 78 74 71 71 69 65 63 69 71 73 73 71 72 72 73 72 73 74 79 80 78 76 75 71 72 72 71 73 71 73 72 69 70 72 75 75
76 76 76 75 76 75 78 77 74 70 69 69 66 64 63 70 72 71 73 73 74 73 73 73 74 74 74 76 72 65 68 71 71 73 72 71 72 68 68 70 70 73 72
76 75 76 76 76 75 78 76 74 74 75 68 63 64 65 67 72 70 71 72 73 75 72 73 74 73 73 74 65 63 59 61 67 68 70 68 68 67 67 69 70 69 68
76 76 77 76 76 76 75 78 72 72 75 69 65 67 65 66 70 71 72 74 74 76 75 72 74 74 73 69 69 63 59 57 60 66 65 65 66 65 67 68 69 70 69
78 79 77 77 76 77 76 76 72 69 70 72 68 67 66 69 65 70 72 73 74 77 72 71 73 74 74 67 67 65 71 68 58 56 62 64 65 65 66 67 67 67 68
79 79 79 78 77 76 76 75 77 73 70 71 72 68 71 69 70 70 69 70 70 69 70 72 72 74 75 65 65 65 69 63 63 60 57 58 60 63 66 66 67 67 69
80 79 78 77 77 77 78 76 73 69 69 66 66 68 70 68 69 69 68 67 71 72 72 73 73 73 71 72 69 69 64 63 61 61 59 59 58 58 63 65 66 67 71

GFSSE_sfc_temp_003.txt.gz
Temp
95 93 79 79 79 79 79 79 79 78 78 78 78 78 77 77 77 77 77 77 77 77 78 78 78 79 79 80 80 79 79 80 81 81 82 81 81 80 80 81 81 86 79
99 95 79 79 79 79 79 79 79 78 78 78 78 78 77 77 77 77 77 77 77 77 78 78 79 79 79 80 80 79 79 80 80 80 81 81 81 80 80 81 81 82 79
97 95 87 79 79 79 79 78 78 78 78 78 78 78 77 77 77 77 77 77 77 77 78 78 78 79 79 79 80 79 79 79 79 79 81 86 86 79 79 81 80 79 78
96 94 94 78 78 79 79 78 78 78 78 78 77 77 77 77 77 77 77 76 76 77 78 78 78 79 79 79 79 79 78 78 79 79 82 85 84 79 79 80 79 79 78
95 96 91 78 78 78 79 78 78 77 77 77 78 78 77 77 77 76 76 76 76 77 77 78 78 78 79 79 79 79 78 77 78 79 81 80 76 78 79 79 79 79 78
98 97 84 79 78 78 78 78 77 77 77 77 77 77 77 77 76 76 76 76 76 76 77 77 77 77 78 79 78 78 78 76 77 83 77 79 77 77 78 79 79 78 77
96 96 94 79 77 77 78 78 78 77 77 77 76 76 76 76 76 76 76 75 76 76 76 76 76 76 77 77 77 78 78 77 81 81 78 73 79 76 78 78 78 77 76
92 91 91 80 78 75 74 74 74 74 74 74 74 73 73 74 74 74 76 76 75 75 76 76 76 76 76 76 77 77 78 77 82 79 79 75 74 76 77 76 77 77 77
92 90 90 88 85 76 76 73 72 72 72 71 71 71 72 72 73 73 74 75 74 74 75 75 75 75 75 76 76 77 77 77 79 79 78 72 74 75 75 76 76 76 77
92 92 90 89 90 86 85 76 72 72 71 70 70 70 71 71 71 72 72 74 74 74 75 75 74 75 75 76 75 76 76 77 79 79 79 77 74 74 75 76 77 76 77
92 90 90 89 86 85 84 83 76 76 74 73 73 72 71 73 77 77 75 75 74 73 74 74 75 75 75 75 75 75 76 83 79 77 82 75 74 74 75 77 77 76 76
88 89 89 86 82 81 83 82 81 79 77 74 73 70 71 72 74 76 73 73 72 73 74 74 74 75 75 81 80 76 82 85 79 78 82 75 75 76 75 75 76 76 76
87 88 88 83 80 79 81 81 80 80 72 70 70 68 68 70 74 74 73 77 75 72 74 76 77 78 80 80 78 82 84 85 79 78 80 74 75 74 73 76 75 76 76
86 85 84 82 79 78 79 80 81 79 73 74 71 68 71 72 71 70 73 72 71 74 74 72 73 79 79 79 81 78 84 86 79 76 79 75 74 74 74 75 74 75 75
83 83 82 80 78 77 76 78 77 74 72 76 76 75 72 70 70 72 71 72 74 72 73 71 75 76 80 79 79 77 84 85 79 74 75 75 72 73 72 72 75 76 75
82 81 80 80 78 78 74 74 71 72 72 76 79 76 73 72 69 70 72 73 70 70 69 71 76 79 77 77 79 76 83 83 78 74 77 73 72 72 73 73 74 76 75
83 81 79 79 79 77 75 77 74 74 73 72 74 72 74 72 70 70 71 71 70 73 72 74 69 77 72 75 78 76 83 81 76 75 75 74 71 72 72 73 73 74 75
81 80 80 82 80 79 77 77 76 76 74 72 70 65 68 72 73 70 71 71 69 71 71 73 77 76 75 73 74 77 82 78 76 75 76 75 76 72 72 71 73 75 75
81 80 79 79 79 78 78 79 78 75 73 71 67 64 66 72 74 71 70 71 72 70 71 75 73 76 73 68 74 77 78 75 74 73 74 74 73 70 68 71 72 74 75
81 80 79 80 79 77 79 69 79 74 74 72 69 66 66 72 73 73 71 71 71 70 71 72 71 71 75 72 73 71 77 73 72 71 70 73 69 71 72 69 69 70 74
80 79 79 78 78 77 79 74 77 71 75 75 71 69 70 69 72 73 71 71 72 70 71 73 75 71 69 72 74 71 70 72 67 67 68 68 69 70 70 68 68 68 72
79 79 79 79 78 78 80 78 77 72 74 76 74 72 71 73 71 72 72 74 74 72 71 73 72 68 74 71 73 63 60 63 65 67 69 70 69 69 68 68 68 69 70
79 79 79 79 78 77 78 79 78 77 73 71 73 73 71 71 72 72 72 76 75 76 72 72 73 74 72 71 74 64 59 58 61 64 67 71 69 67 66 67 68 69 68
81 81 80 80 78 79 78 78 75 71 68 70 73 70 69 72 72 72 73 75 75 76 77 75 73 74 72 67 69 72 74 66 60 58 64 66 66 66 66 66 66 67 67
82 81 81 80 79 78 77 76 77 72 72 70 70 71 69 70 70 73 72 74 75 76 76 75 74 73 73 73 70 72 64 67 66 61 58 59 63 64 65 66 66 67 68
82 82 80 79 78 79 79 77 75 73 71 70 68 68 70 67 67 71 72 71 73 74 72 73 75 72 72 71 72 66 68 65 62 61 59 59 59 61 64 65 65 66 67

GFSSE_sfc_temp_006.txt.gz
Temp
87 84 79 79 79 79 79 79 78 78 78 78 78 78 78 77 77 77 77 77 77 77 78 79 78 78 79 79 79 79 79 79 78 77 79 79 78 77 79 80 80 82 79
90 84 79 79 79 79 79 79 78 78 78 78 78 78 78 77 77 77 77 77 77 77 78 78 79 78 79 79 79 79 79 79 79 78 78 81 80 79 80 80 81 79 79
90 85 82 79 79 79 79 78 78 78 77 77 77 77 77 77 77 77 77 77 77 77 77 78 79 78 79 79 79 79 79 79 78 79 79 77 79 80 81 81 80 78 78
92 82 84 78 78 79 78 78 78 77 77 77 77 77 77 77 77 77 77 77 77 77 77 78 79 79 79 79 79 79 79 78 77 79 77 79 80 80 80 79 77 78 77
93 90 82 78 78 78 78 78 77 77 77 77 77 78 77 77 76 76 76 77 77 77 77 78 78 79 78 79 79 78 78 78 78 78 77 76 75 79 80 79 79 78 78
96 93 80 78 78 78 78 78 78 77 77 77 77 77 77 77 77 76 76 76 76 77 77 77 78 77 77 77 78 78 78 78 77 78 75 76 74 78 79 79 78 78 77
93 89 82 78 79 78 78 78 78 77 76 76 77 76 76 75 75 76 76 76 77 76 76 77 77 76 76 76 77 77 77 78 77 75 76 73 74 76 78 78 78 77 77
90 87 84 79 78 77 76 75 74 74 73 74 74 74 74 74 74 74 75 75 76 76 76 76 77 76 76 75 76 76 77 77 78 74 75 72 74 76 77 77 77 77 77
91 88 85 84 80 77 76 76 74 73 72 72 72 71 72 72 73 73 74 74 75 76 75 75 76 76 75 75 75 76 76 77 74 74 75 72 75 76 76 77 76 77 77
90 90 86 83 86 81 75 74 74 73 73 72 72 72 71 71 72 72 72 73 74 75 74 74 75 75 75 75 74 75 76 76 74 75 73 73 74 75 75 76 76 77 76
91 88 85 86 82 80 81 80 74 75 73 74 74 73 71 69 71 73 74 74 75 74 74 73 75 74 74 75 75 75 76 74 73 72 72 76 75 75 73 74 74 74 75
88 87 85 80 77 78 81 78 77 78 76 73 71 70 68 69 68 72 73 74 74 74 74 74 74 74 74 72 73 75 73 75 72 71 74 75 75 76 76 75 74 75 75
84 85 83 79 79 77 76 76 75 75 73 72 70 68 68 68 68 70 69 70 69 72 69 72 72 72 72 72 74 73 74 76 72 71 76 75 75 76 75 75 74 73 74
84 83 83 80 77 76 76 75 75 73 72 71 71 68 67 68 66 67 68 68 67 67 67 67 68 69 70 71 74 74 75 75 72 69 72 75 75 76 75 74 73 73 74
82 82 81 78 77 76 74 73 73 71 72 72 69 68 69 67 65 66 67 67 67 68 66 66 66 69 69 72 75 75 75 74 73 71 71 75 73 74 74 73 73 72 73
82 81 80 79 78 77 74 72 71 71 71 71 68 67 70 68 65 66 67 66 66 67 66 66 68 66 69 70 72 73 74 72 73 71 70 71 72 73 74 73 72 73 73
81 81 79 78 77 75 74 73 71 71 70 67 67 68 67 67 66 67 65 65 65 66 66 66 67 67 67 70 70 70 70 72 71 71 70 70 70 73 74 74 73 74 73
80 79 80 81 79 77 75 73 71 70 70 68 68 67 65 67 68 67 65 66 66 65 65 66 65 66 67 67 67 65 66 70 70 70 70 69 69 68 72 74 73 74 74
79 79 79 79 77 77 75 72 70 73 72 70 68 65 65 68 70 67 65 67 67 65 65 65 64 65 66 65 67 68 67 68 70 70 69 69 69 68 68 72 72 72 73
79 78 78 77 77 76 74 68 67 70 72 70 69 68 67 67 70 68 66 66 67 65 64 65 65 67 68 68 68 67 68 68 69 68 68 69 68 68 68 67 67 68 71
77 76 76 77 77 75 73 71 70 70 69 68 68 69 68 67 68 68 66 66 67 65 65 65 66 66 65 65 64 64 66 68 67 68 68 67 67 67 67 67 66 66 67
75 76 76 76 77 75 74 72 72 72 70 72 69 69 70 68 68 68 67 66 66 65 66 66 67 65 62 64 63 63 59 61 64 65 66 65 66 67 66 66 66 66 66
75 76 76 77 77 76 75 71 72 70 68 69 68 67 66 70 69 69 69 67 66 67 67 66 65 65 63 65 66 63 58 57 61 64 64 65 65 65 65 65 66 66 66
76 77 77 77 76 76 75 73 70 66 64 66 67 67 65 71 70 69 69 70 68 67 66 65 66 63 63 61 65 66 67 62 58 58 63 64 65 64 65 65 65 65 66
78 76 76 76 76 77 76 74 70 69 67 67 66 67 66 63 68 70 69 70 68 67 67 67 66 66 65 64 65 65 64 63 63 60 58 60 63 64 65 65 65 65 66
79 77 76 76 76 77 77 75 73 68 67 66 65 65 65 65 65 69 70 70 69 68 69 69 68 67 67 66 66 64 64 62 61 60 59 60 60 62 64 64 64 64 65

GFSSE_sfc_temp_009.txt.gz
Temp
77 77 79 79 79 78 79 78 78 78 78 78 78 78 78 77 77 77 77 77 76 77 77 78 78 78 78 78 79 79 79 79 79 78 78 79 79 78 78 79 81 80 79
80 77 79 79 79 79 79 78 78 78 77 78 78 77 77 77 77 77 76 77 76 77 77 78 78 79 78 79 79 79 79 79 78 77 76 76 79 78 78 79 81 78 78
78 76 78 78 79 79 78 78 78 77 77 77 77 77 77 77 77 77 76 76 77 77 77 78 78 78 78 79 79 79 79 78 78 78 79 75 78 79 79 81 79 78 77
78 74 76 78 78 78 78 78 77 77 77 77 77 77 77 77 77 77 77 77 77 77 77 77 78 78 79 79 79 79 78 78 77 78 74 76 78 80 80 80 80 79 78
78 76 77 78 78 78 78 77 77 77 77 77 77 77 77 77 77 76 76 76 77 77 77 77 78 78 78 78 78 78 77 78 77 78 73 72 72 79 80 79 78 79 78
80 81 78 78 78 78 78 78 77 77 77 76 77 77 77 77 77 76 76 76 76 76 77 77 77 78 78 77 77 77 77 77 78 74 72 72 73 78 80 78 79 79 78
74 74 76 77 77 78 78 78 77 77 76 76 76 77 76 76 76 76 76 76 76 77 77 77 77 77 76 76 76 76 76 77 75 72 72 70 71 76 79 79 78 78 77
75 74 74 78 77 77 77 77 75 74 74 73 73 74 74 74 74 74 74 75 76 76 77 77 76 76 76 75 75 75 76 77 76 71 72 71 72 76 78 78 78 77 77
79 74 72 72 75 77 76 76 75 74 74 73 73 72 72 72 73 73 73 74 74 75 75 76 75 75 75 75 75 74 75 76 71 70 72 70 76 77 78 77 77 76 76
78 76 73 69 69 69 69 76 75 74 74 73 72 72 72 71 71 72 72 73 74 74 75 75 74 75 75 74 74 74 75 76 70 70 70 70 76 78 78 77 77 76 76
78 75 73 71 69 68 67 71 74 75 75 73 72 73 68 63 64 67 70 73 73 74 74 74 74 74 74 74 74 74 75 68 69 69 70 74 76 76 76 75 74 75 75
74 72 70 69 68 69 75 67 65 68 66 65 65 64 62 62 61 68 70 73 74 74 74 74 73 73 74 66 67 74 68 68 67 68 70 75 76 76 77 75 74 73 74
74 71 69 69 68 67 67 65 64 65 63 63 64 62 61 62 60 61 61 63 63 69 65 68 68 69 67 65 65 66 68 69 66 68 72 75 74 76 75 75 74 74 74
71 70 69 68 68 66 65 65 64 64 63 62 62 62 60 60 60 60 61 62 62 62 62 63 62 64 65 66 66 68 69 68 66 67 70 75 74 75 76 75 75 74 73
70 70 68 69 66 66 65 64 63 63 63 63 63 63 61 60 61 61 61 61 61 61 61 61 62 64 65 65 67 69 69 68 68 67 67 75 74 75 75 74 74 72 72
70 69 68 69 66 66 64 64 64 63 64 63 62 63 64 64 62 60 60 60 60 60 61 61 62 62 62 63 66 67 67 68 68 67 68 71 73 73 74 74 73 73 72
69 70 68 68 67 66 65 64 64 63 64 62 62 63 66 65 63 60 60 60 60 60 61 61 62 61 61 63 64 66 66 67 68 67 67 69 70 73 73 74 74 73 72
69 68 69 74 67 65 65 65 64 64 63 63 63 62 64 65 64 61 60 60 60 60 60 60 60 60 62 62 62 62 64 65 67 67 68 68 69 69 73 73 73 73 73
69 68 68 68 67 66 66 65 64 65 63 63 63 61 62 63 64 61 60 61 61 60 59 60 60 61 60 60 62 62 63 62 65 68 68 68 69 68 68 72 73 72 73
68 68 68 67 66 66 65 63 62 63 63 64 62 61 62 61 64 62 61 62 61 59 59 59 59 60 61 60 64 63 63 62 65 67 67 68 68 68 67 67 68 69 71
67 66 66 65 65 64 62 62 61 60 62 62 63 63 63 62 63 61 61 61 61 59 59 60 60 60 60 60 59 61 61 63 63 66 67 66 67 67 66 66 66 66 67
65 66 66 66 65 64 63 63 63 62 63 63 63 64 64 64 62 62 61 60 61 60 60 60 60 59 58 60 58 59 58 60 63 65 65 65 65 65 65 66 66 66 66
65 65 66 65 65 65 65 63 62 63 62 62 62 61 62 65 64 63 63 61 61 60 60 60 60 60 57 60 62 59 56 55 60 63 64 64 64 64 65 65 65 66 66
65 67 67 66 65 66 65 63 62 60 59 61 62 63 62 64 64 64 63 63 61 60 60 61 61 61 61 60 60 61 60 60 58 58 62 63 64 63 63 64 64 65 65
68 65 65 66 65 66 65 64 62 61 61 62 61 61 60 62 64 65 64 62 61 61 61 62 59 61 61 60 61 59 59 60 62 59 57 59 62 62 63 64 64 64 65
66 65 65 64 64 66 65 65 62 61 62 60 60 59 60 61 61 64 65 62 62 62 62 61 61 62 61 61 60 60 60 58 60 59 58 59 59 61 63 64 64 65 65

GFSSE_sfc_temp_015.txt.gz
Temp
74 74 78 79 78 78 78 78 78 78 77 77 77 77 76 76 76 76 76 76 76 76 76 77 77 77 78 78 78 78 78 78 78 78 79 79 79 78 79 80 79 79 79
79 74 78 78 78 78 78 78 78 77 77 77 77 77 77 76 76 76 76 76 76 76 76 77 77 77 78 78 78 78 78 78 78 78 79 79 79 79 79 80 80 78 79
77 74 77 78 78 78 78 78 77 77 77 77 77 77 77 77 77 77 76 76 76 76 76 77 77 77 78 78 78 78 78 78 77 77 78 75 73 79 79 79 79 78 78
74 74 75 78 78 78 78 77 77 77 77 77 77 77 77 77 77 77 77 76 77 77 77 77 77 77 77 78 78 78 78 78 77 78 73 73 74 78 79 78 79 78 78
74 75 75 78 78 78 78 77 77 77 77 77 77 77 77 76 76 76 77 77 77 77 78 78 78 77 77 77 77 78 77 77 77 77 71 71 71 76 78 78 78 79 78
75 75 75 77 77 77 78 77 77 77 77 77 77 77 76 77 77 76 76 76 77 77 78 78 78 77 77 77 77 77 77 76 77 71 70 71 71 74 78 78 78 78 78
71 71 73 77 77 78 78 77 77 77 76 76 77 77 77 76 76 76 76 76 76 77 77 77 77 77 76 77 77 76 75 75 72 68 69 69 70 74 78 77 78 78 78
71 69 71 77 77 77 77 77 77 76 76 76 76 76 75 75 75 75 75 75 76 76 76 77 77 76 76 75 76 75 74 75 74 68 69 69 71 74 78 77 77 77 78
71 71 71 73 75 77 77 76 76 76 75 75 75 74 74 74 74 74 74 74 75 75 75 75 75 75 75 75 75 74 74 75 69 67 69 68 73 75 78 78 77 77 77
68 71 69 68 70 70 71 76 76 75 75 74 74 74 73 73 73 73 72 72 73 73 73 74 75 75 75 74 74 74 74 75 68 67 67 67 74 76 78 78 77 77 77
68 64 64 64 66 66 67 70 75 76 75 75 73 74 71 64 62 65 68 71 71 72 73 73 74 74 74 74 73 74 75 66 66 65 66 71 75 77 78 78 77 77 77
64 64 63 63 63 64 69 65 65 66 64 64 65 63 62 60 59 64 66 70 71 72 73 73 73 74 74 65 68 72 66 65 64 65 66 73 75 77 78 78 77 75 75
68 64 63 62 62 63 64 61 60 60 60 60 62 61 60 60 59 59 58 59 59 64 62 65 65 66 65 63 63 64 64 64 63 64 68 73 74 76 78 77 77 76 76
64 64 63 62 62 61 61 59 59 59 59 59 60 60 58 58 58 58 57 58 59 59 60 60 61 62 63 63 63 63 62 63 63 63 65 73 74 75 78 77 76 76 75
63 64 63 61 61 61 60 59 59 59 60 60 60 60 59 58 57 58 59 60 60 59 58 59 60 60 61 62 62 63 62 63 64 63 63 72 74 75 76 76 75 74 73
65 64 62 62 61 61 60 60 60 59 60 60 59 60 61 59 58 58 61 60 58 57 58 59 59 59 60 60 61 61 62 63 63 64 64 66 73 73 75 75 75 74 75
65 64 62 61 61 61 60 60 59 59 60 60 60 61 61 60 59 59 60 59 57 58 58 58 58 59 59 59 60 60 61 62 63 64 65 66 68 73 74 75 74 75 75
62 62 62 67 61 60 59 59 60 60 60 60 60 60 61 61 60 59 58 57 58 58 57 57 57 57 57 58 58 58 60 61 63 64 65 65 66 68 72 74 74 74 74
63 62 62 62 61 60 60 59 59 60 60 60 60 60 61 62 62 58 57 57 59 57 56 57 56 57 57 57 58 59 59 60 62 65 66 64 65 66 67 72 71 72 72
62 62 61 61 60 60 59 59 59 59 60 61 60 61 62 62 61 58 57 58 58 57 56 56 56 57 57 57 59 59 58 59 61 63 65 67 66 66 67 69 69 69 71
61 60 60 60 59 59 57 58 58 59 59 59 60 62 63 62 60 58 57 58 58 56 56 56 56 57 56 57 56 55 59 61 61 62 63 65 66 67 68 67 67 68 68
60 60 60 61 59 59 58 59 59 58 60 60 60 62 63 62 61 59 58 58 58 56 56 56 57 57 56 57 55 54 53 57 61 63 64 65 65 66 66 66 67 66 66
60 60 61 60 60 59 60 59 58 59 59 59 59 60 60 63 62 60 60 59 57 57 55 56 57 57 55 57 57 55 52 52 58 62 63 64 64 64 64 65 66 66 66
60 60 60 60 59 60 60 59 59 57 56 57 58 59 60 63 62 61 61 59 58 57 56 57 58 57 57 56 57 59 58 59 57 56 61 62 63 63 63 64 64 65 66
60 59 60 60 59 60 60 60 58 57 57 57 57 58 58 60 62 62 60 59 58 57 57 57 57 57 57 57 58 58 57 59 59 59 57 59 61 62 63 63 64 64 65
59 59 59 59 59 60 60 60 59 58 57 57 57 57 57 59 59 60 60 58 59 58 58 58 58 58 57 59 60 59 59 57 57 58 58 59 59 60 62 63 63 64 64

GFSSE_sfc_temp_021.txt.gz
Temp
84 86 78 79 79 78 79 78 78 78 77 77 77 77 77 77 77 76 76 76 76 76 76 77 77 77 78 78 78 78 78 78 78 78 79 79 80 80 80 81 80 87 79
88 85 78 79 79 79 79 78 78 78 77 77 77 77 77 76 76 76 76 76 76 76 77 77 77 77 77 78 78 78 78 78 78 78 78 79 79 80 80 81 81 85 79
86 83 82 78 78 78 78 78 78 77 77 77 77 77 77 77 76 76 76 76 76 77 77 77 77 77 77 78 78 78 78 78 78 78 78 84 85 80 80 81 81 79 79
85 82 84 78 78 78 78 78 77 77 77 77 77 77 77 77 77 77 77 77 77 77 77 77 77 77 77 77 78 78 78 78 78 78 83 83 83 80 80 80 80 80 78
84 84 82 78 78 78 78 78 77 77 77 77 77 78 78 77 77 77 77 77 77 78 78 78 78 79 78 77 77 77 77 78 77 79 82 82 82 82 79 79 79 79 78
86 85 82 78 78 78 78 78 77 77 77 77 77 77 77 77 77 77 76 77 77 77 78 78 79 78 78 78 77 77 77 77 77 83 81 80 80 78 77 79 80 79 78
86 86 85 78 78 78 78 78 77 77 77 77 77 77 77 77 77 76 76 76 77 77 78 78 77 77 77 77 77 76 77 77 81 82 81 80 81 74 76 78 78 77 77
85 83 84 79 77 77 78 78 77 77 77 77 77 77 77 77 77 76 76 76 76 77 77 77 76 77 75 76 76 75 76 76 81 81 80 81 77 74 76 77 78 77 77
85 82 82 83 80 77 77 77 77 76 76 76 76 76 76 76 76 76 75 75 75 75 75 76 76 76 75 75 75 75 75 76 81 81 81 81 76 75 76 77 78 77 77
84 84 82 82 84 82 82 77 77 76 76 76 76 75 75 75 75 75 74 74 73 73 74 75 75 75 75 74 74 74 75 76 80 81 81 82 74 75 76 77 78 77 77
82 82 82 83 82 82 83 82 77 77 77 76 76 75 75 80 79 78 75 72 73 73 73 73 74 74 74 74 74 74 75 80 81 80 81 76 74 75 77 77 78 77 77
82 82 82 80 80 81 82 80 81 81 82 80 79 78 78 77 76 75 74 71 71 72 72 73 73 73 74 79 80 75 79 80 80 79 81 75 73 75 77 77 77 77 77
85 84 80 77 78 79 80 80 80 80 79 77 76 75 76 76 75 75 75 75 74 72 75 75 75 77 77 77 79 79 80 79 80 80 79 73 73 75 76 77 77 77 77
85 82 79 77 75 77 79 78 78 77 77 76 76 74 73 74 73 72 74 74 71 73 72 73 75 73 74 75 76 77 77 78 79 78 78 72 73 74 76 77 77 77 76
82 80 76 76 75 74 73 77 76 75 76 77 76 75 74 74 72 73 72 73 72 74 73 72 72 73 73 74 75 76 76 76 75 77 78 73 72 73 75 76 77 76 76
79 77 76 75 74 74 74 73 74 74 76 76 75 75 72 73 71 73 72 72 72 72 72 72 72 72 73 72 72 73 74 74 74 75 78 78 72 72 73 75 77 76 77
79 75 73 74 73 72 73 74 74 75 75 74 75 72 72 71 70 70 71 70 70 69 68 71 71 71 71 71 71 73 74 73 75 74 76 77 78 72 73 75 76 76 76
76 72 73 76 73 72 73 74 75 74 74 73 73 73 72 71 71 70 71 71 71 70 71 71 70 70 70 70 68 70 71 73 74 74 76 76 78 79 77 74 75 75 75
72 72 72 72 73 73 72 74 73 72 73 73 73 73 72 72 71 71 70 71 69 70 70 69 69 69 67 67 68 70 72 73 73 76 75 74 76 78 80 75 73 73 73
72 72 71 71 72 72 73 71 73 72 73 74 73 74 72 72 71 70 64 66 68 68 69 68 67 68 67 68 68 69 71 73 74 72 74 74 72 76 78 79 75 72 70
71 70 70 70 70 71 72 73 72 72 73 73 73 72 72 72 72 67 66 67 67 67 68 67 67 66 65 67 65 62 66 69 70 71 73 73 70 73 74 79 70 66 70
69 70 70 71 69 71 73 72 75 74 74 73 73 71 71 72 71 68 67 63 65 66 66 66 66 65 65 67 64 65 63 66 69 69 71 70 70 73 71 75 74 71 71
69 69 70 70 70 71 72 72 71 71 71 72 72 72 71 71 70 66 67 67 68 68 66 66 66 66 64 65 68 66 65 65 64 69 69 71 70 68 70 69 72 71 70
69 72 71 71 70 71 71 71 70 71 70 71 71 71 71 69 71 66 68 69 69 68 66 67 69 69 66 65 66 71 70 71 65 60 65 67 68 65 67 68 69 68 68
71 71 71 71 71 71 71 72 72 69 71 71 71 68 68 71 70 70 70 69 69 69 68 68 67 68 69 66 66 66 67 71 72 66 59 60 63 65 65 65 65 66 66
73 72 71 70 70 71 71 71 70 69 68 70 69 70 70 69 67 70 70 70 69 69 69 69 69 69 69 68 68 67 68 68 65 66 63 60 60 62 64 66 65 65 65

GFSSE_sfc_temp_024.txt.gz
Temp
95 94 79 79 79 79 79 79 78 78 77 77 77 77 77 77 77 77 77 77 77 77 77 77 77 77 78 78 78 78 78 78 78 79 79 79 80 80 80 81 81 87 80
99 94 79 79 79 79 79 79 78 78 77 77 78 78 77 77 77 77 77 77 77 77 77 77 77 77 78 78 79 78 78 78 78 78 79 79 80 80 80 81 81 86 79
98 93 85 79 79 79 79 78 78 77 77 77 78 77 77 77 77 77 77 77 77 77 77 77 77 78 78 78 78 79 79 78 78 78 79 87 87 80 81 81 81 80 79
98 92 89 78 79 79 78 78 77 77 77 77 77 78 77 77 77 77 77 77 77 77 78 78 78 78 78 78 78 78 78 78 78 78 86 91 88 81 80 80 80 80 79
97 94 90 79 78 79 78 78 77 77 77 77 78 78 78 78 78 77 77 77 77 78 78 79 79 79 79 78 78 77 78 78 78 80 88 89 89 86 80 80 80 79 79
99 97 89 78 78 78 78 78 77 77 77 77 78 78 78 78 77 77 77 77 77 78 78 79 79 79 79 79 78 77 77 77 77 86 88 87 85 81 78 79 80 80 78
99 99 97 78 78 78 79 78 77 77 77 77 78 78 78 77 77 77 77 77 77 77 77 78 78 78 77 78 78 77 77 77 83 87 88 86 87 76 76 78 79 78 78
99 96 96 80 78 78 78 78 77 77 77 77 77 77 77 77 77 77 77 77 77 77 77 77 77 75 76 76 76 76 76 77 84 85 86 87 82 75 76 77 78 78 77
99 96 94 91 82 77 77 77 77 77 77 76 76 76 77 77 77 77 76 76 76 75 75 75 76 76 76 76 75 76 75 76 83 87 88 87 78 76 76 77 77 78 78
98 98 94 91 91 87 86 77 77 77 76 76 76 76 76 76 76 76 75 75 75 74 74 74 75 75 75 75 75 75 75 75 82 82 88 88 76 76 77 77 77 77 77
98 97 96 95 93 90 90 87 78 77 77 76 77 76 77 84 85 83 80 75 74 74 74 73 73 74 74 75 75 75 75 83 86 82 88 79 76 76 77 77 77 77 77
96 97 96 92 91 91 93 89 85 87 87 86 85 84 84 84 84 82 79 74 73 73 73 73 73 74 74 82 82 76 82 84 86 86 86 77 75 75 77 77 77 77 77
100 98 96 89 88 89 91 90 89 89 88 87 84 83 83 84 83 83 83 82 80 77 81 81 81 81 82 79 78 77 84 85 87 86 85 75 74 75 76 77 77 76 76
99 98 96 91 85 85 91 89 89 89 87 86 85 81 80 81 80 80 82 80 79 81 79 79 81 78 79 80 81 78 76 82 87 80 83 75 73 74 75 77 77 76 76
96 97 95 90 84 84 84 88 87 86 86 86 85 83 82 82 80 81 79 79 77 78 79 79 80 79 78 79 81 80 77 82 84 80 81 76 73 73 74 76 77 77 76
94 94 93 88 84 84 83 83 83 83 86 84 85 84 80 81 79 81 78 77 77 77 79 79 78 78 79 79 79 78 80 80 81 80 83 83 73 73 73 75 76 77 76
94 92 89 85 84 82 82 82 82 85 84 85 85 81 80 79 79 76 78 77 77 73 75 75 77 77 78 79 77 79 80 79 77 78 80 83 83 72 73 74 75 76 76
92 89 86 86 84 81 81 82 84 85 84 84 84 83 80 78 77 75 75 73 71 70 71 73 75 77 77 78 74 73 76 76 76 79 81 82 84 86 76 74 75 75 75
90 87 82 83 83 80 77 82 82 81 82 84 83 83 81 79 78 74 72 69 71 69 70 72 74 75 75 71 69 70 74 75 77 81 81 80 81 83 86 76 74 73 74
86 82 81 82 81 79 81 81 83 83 83 84 83 82 80 80 78 74 70 72 67 68 70 72 73 73 73 70 69 69 73 77 80 80 80 82 79 80 83 81 81 80 73
81 79 79 79 77 80 80 81 81 80 82 83 83 81 80 79 76 71 70 66 66 66 66 70 70 68 67 69 65 66 71 74 77 80 80 75 76 80 80 81 77 81 73
78 78 77 77 76 79 82 82 83 82 84 84 84 80 79 79 74 71 69 69 68 67 70 70 67 66 67 68 65 69 65 68 73 76 78 75 77 80 80 80 79 75 68
77 77 77 77 77 79 80 80 79 80 80 80 80 80 78 77 75 71 71 69 71 73 73 68 68 67 65 68 70 69 66 69 72 73 73 75 75 77 79 77 76 74 72
78 79 78 77 77 78 78 79 77 80 79 82 80 82 79 77 75 74 71 71 74 71 68 69 72 71 68 66 70 75 76 77 72 64 68 71 73 75 75 73 73 73 73
79 79 78 77 77 77 78 79 79 77 80 80 80 75 75 75 73 75 75 75 73 69 70 72 72 70 69 68 72 69 71 78 77 69 63 64 67 68 71 71 71 69 71
81 80 78 77 76 77 78 77 76 75 76 78 77 76 73 69 70 75 76 73 72 72 73 73 74 72 70 70 71 71 69 73 73 69 66 64 63 63 64 66 66 67 67

GFSSE_sfc_temp_027.txt.gz
Temp
101 90 79 79 79 79 79 79 78 78 78 78 78 78 78 78 78 78 78 77 77 77 77 78 78 78 78 79 79 79 79 79 79 79 79 80 80 81 81 81 81 87 80
104 90 79 79 79 79 79 79 78 78 78 78 78 78 78 78 78 78 78 77 77 77 77 78 78 78 78 78 79 79 79 79 79 79 79 79 80 79 81 81 81 84 79
103 92 84 79 79 79 79 78 78 77 77 78 78 78 78 78 78 78 77 77 77 78 78 78 78 78 78 78 79 79 79 79 79 79 79 84 87 81 79 80 81 80 79
103 92 89 79 79 79 78 78 77 77 77 77 78 78 78 77 77 77 77 77 77 78 78 78 78 78 78 78 78 78 78 79 79 79 84 90 90 81 81 80 80 79 80
101 97 91 78 78 79 78 78 77 77 77 77 78 78 78 78 77 77 77 77 78 78 78 79 79 79 79 78 78 78 78 78 78 80 86 89 90 87 81 79 79 79 79
104 101 88 78 78 78 78 78 77 77 77 77 78 78 78 78 78 77 77 77 78 78 78 79 79 79 79 78 78 78 77 77 77 85 86 88 88 84 81 79 78 80 78
105 103 96 78 78 78 79 78 78 77 77 77 78 78 78 78 77 77 77 77 77 77 77 77 78 77 77 78 78 77 77 77 81 85 87 88 88 81 77 77 78 78 78
104 102 99 80 78 78 78 78 77 77 77 77 77 77 78 77 77 77 77 77 77 77 77 77 77 77 76 76 76 77 76 76 83 84 85 88 83 78 77 77 77 77 78
105 102 100 90 82 78 78 77 77 77 77 77 77 77 77 77 77 77 77 77 77 76 76 76 76 76 76 76 76 76 76 76 80 84 88 87 80 79 78 77 77 77 77
105 105 100 96 91 86 85 77 77 77 77 76 76 76 76 76 77 76 76 76 76 76 75 75 74 74 75 75 75 75 75 76 80 81 85 88 77 78 77 77 77 77 77
106 103 102 100 96 90 90 86 78 77 77 76 77 76 77 82 84 83 80 78 75 75 74 74 74 74 74 74 75 75 75 80 83 83 86 79 77 78 77 77 77 77 76
104 104 103 98 95 94 95 90 84 85 85 84 84 84 83 84 85 85 81 76 75 74 74 74 74 74 75 81 83 76 80 82 83 84 85 77 77 77 77 77 77 76 76
105 105 103 96 94 94 94 94 89 89 87 87 85 85 85 86 86 86 85 81 78 76 78 78 78 78 80 81 81 81 79 84 85 87 87 76 76 76 77 77 77 77 76
104 103 103 99 91 90 95 94 92 91 90 89 88 85 83 83 82 81 84 85 82 83 81 80 81 79 80 82 80 76 79 81 85 85 80 76 75 75 76 77 77 77 75
101 102 103 99 90 87 86 93 91 90 91 90 88 86 84 84 82 83 83 81 79 83 83 80 76 75 74 76 78 82 80 78 74 77 85 76 74 74 75 76 77 77 76
99 99 100 98 90 88 86 87 88 89 90 89 88 87 83 83 82 83 81 78 79 79 80 78 72 74 75 73 74 74 78 79 76 77 83 71 74 74 74 75 76 77 77
98 97 96 96 91 86 85 86 87 88 83 88 87 85 85 82 81 79 82 79 75 73 76 75 76 72 74 79 75 79 74 79 78 78 78 78 78 73 74 74 76 76 77
97 95 95 97 92 85 84 86 87 88 86 88 87 86 82 81 80 79 79 79 78 75 73 73 71 72 70 76 72 78 76 74 76 79 79 81 84 85 75 74 75 76 76
96 94 93 91 90 85 84 85 85 85 86 87 87 86 84 82 81 77 76 76 74 72 71 69 69 73 68 73 74 73 74 74 76 78 77 80 81 82 83 75 74 74 75
94 92 90 88 86 84 85 83 85 85 85 87 86 86 84 83 80 79 77 73 72 72 66 66 68 72 72 71 72 71 73 76 78 79 80 82 82 82 83 79 79 79 73
88 86 83 82 83 83 82 82 83 83 84 85 86 85 83 83 80 77 76 72 72 71 70 68 65 64 69 71 67 68 69 73 75 79 80 81 80 81 83 84 81 81 77
84 82 81 82 81 81 83 83 86 85 86 86 87 84 83 82 78 77 75 71 71 69 70 71 69 68 68 67 65 66 60 65 72 78 79 78 77 80 82 81 78 78 72
82 81 80 80 78 81 83 84 83 84 84 83 83 82 81 78 78 74 75 72 72 71 71 71 71 68 65 69 69 66 62 64 70 76 75 76 74 79 82 77 77 77 73
82 82 81 79 78 82 82 81 79 81 81 84 84 85 79 79 78 76 74 74 72 74 73 72 71 68 68 65 68 69 70 73 67 65 69 72 73 74 77 75 76 74 74
83 81 80 79 79 80 80 81 80 79 83 83 83 80 77 77 76 76 74 74 71 72 73 71 70 70 68 68 67 69 72 75 71 74 64 66 70 72 74 73 73 72 72
83 82 80 78 78 79 80 80 79 78 79 80 79 77 72 72 73 75 77 73 74 72 72 73 70 73 70 70 71 71 71 68 71 72 68 65 65 65 69 70 70 70 69

GFSSE_sfc_temp_030.txt.gz
Temp
89 82 79 79 79 79 79 79 78 78 78 78 78 78 78 78 78 78 78 78 78 78 78 78 78 78 78 79 79 79 79 79 79 79 79 79 80 81 81 81 80 83 79
91 82 79 79 79 79 79 78 78 78 78 78 78 78 78 78 78 78 78 78 77 78 78 78 78 78 78 78 79 79 79 79 79 79 79 79 80 80 80 81 80 82 79
89 82 81 79 79 79 78 78 78 77 77 77 78 78 78 78 78 78 78 78 78 78 78 78 78 78 78 78 78 78 78 78 78 79 79 77 79 81 81 81 81 80 79
88 82 82 78 78 79 78 78 77 77 77 77 77 78 78 78 78 78 78 77 78 78 78 78 78 78 78 78 78 78 78 78 78 78 76 80 81 83 80 80 80 80 79
90 85 82 78 78 78 78 78 77 77 77 77 78 78 78 78 77 77 77 77 77 78 78 79 79 79 79 79 78 78 78 78 78 78 76 76 75 86 80 79 80 79 78
96 91 83 78 78 78 78 78 77 77 77 77 78 78 78 78 77 77 77 77 78 78 78 78 78 78 78 78 78 78 77 77 78 77 76 78 78 81 81 78 79 79 78
99 95 84 78 78 78 78 78 77 77 77 77 77 78 78 78 77 77 77 77 77 78 78 78 77 77 77 76 77 77 77 77 77 77 78 77 79 79 79 79 77 78 77
99 94 84 79 78 78 78 78 77 77 77 77 77 77 77 77 77 77 77 77 77 77 77 77 77 76 76 76 76 76 76 77 79 77 77 77 76 78 78 78 77 77 77
102 96 84 81 79 78 77 77 77 77 76 76 76 77 77 77 77 77 77 77 77 77 76 76 76 75 75 75 75 76 75 76 75 75 79 78 77 78 79 78 77 77 77
102 101 86 82 83 80 79 77 77 77 76 76 76 76 76 76 76 76 76 76 77 76 76 75 75 75 74 74 75 75 76 76 74 75 76 77 78 79 78 78 77 77 77
103 98 93 88 84 82 82 80 77 77 77 76 76 76 75 76 77 78 77 77 77 76 76 75 75 74 74 74 74 74 75 73 74 75 77 79 78 79 78 78 77 77 76
100 101 98 92 86 84 88 82 77 78 78 76 77 76 75 77 77 81 78 78 76 76 75 75 74 74 74 72 75 74 73 74 74 75 78 78 77 78 78 78 77 77 76
100 99 97 87 85 86 87 85 80 80 78 78 77 76 77 78 77 78 77 76 73 74 74 75 73 72 73 73 74 72 75 75 75 76 79 78 76 78 78 77 77 77 76
98 95 95 89 84 84 87 87 81 82 80 79 79 78 77 78 76 75 75 76 73 74 72 70 72 71 71 74 75 74 74 74 76 73 74 77 76 77 77 77 77 77 76
93 94 93 90 84 82 81 85 83 82 82 81 81 79 79 76 74 76 75 76 76 74 74 73 73 72 71 73 74 73 74 74 74 72 71 76 75 76 77 77 77 77 77
92 91 92 90 82 83 82 80 80 81 83 82 80 79 77 76 74 76 75 75 74 73 73 72 71 70 69 70 70 72 72 73 73 71 73 70 74 74 75 76 77 77 77
92 89 88 88 82 81 81 80 82 82 82 80 79 79 77 76 75 76 75 74 72 71 72 70 69 69 68 70 70 71 70 71 72 72 71 70 71 73 74 75 76 76 77
90 88 88 93 83 81 80 81 81 81 80 80 78 78 78 77 77 75 74 73 73 71 69 68 68 68 67 67 66 68 67 69 71 71 70 73 71 73 73 74 75 76 76
88 88 88 87 83 81 80 81 81 81 79 78 78 78 77 77 77 74 73 73 72 70 68 67 67 66 65 65 66 67 67 68 70 72 70 71 72 72 73 74 74 74 75
90 88 88 85 82 80 80 79 79 79 78 78 78 78 78 77 78 74 73 72 71 68 67 66 65 66 65 65 67 66 66 67 67 69 70 73 72 72 73 74 70 72 74
86 86 84 81 80 79 79 78 75 76 76 77 78 79 79 79 77 74 72 71 69 67 68 67 65 64 62 64 64 63 64 65 66 69 67 70 71 75 73 69 68 69 72
81 81 80 79 79 78 78 77 78 77 78 78 78 78 78 78 76 75 72 70 69 67 66 66 65 63 63 64 61 60 58 60 63 67 69 71 72 71 73 74 71 70 70
79 78 78 78 77 78 77 77 77 77 78 76 77 76 77 78 76 75 72 70 68 67 65 66 66 65 62 63 64 60 57 56 59 64 67 66 67 68 70 70 70 70 67
79 79 78 77 76 78 77 77 75 73 73 75 75 74 75 76 74 73 71 70 68 68 67 67 66 65 64 61 63 65 64 63 58 56 63 64 66 65 68 67 68 67 68
79 78 77 76 75 78 78 76 75 74 76 77 76 73 74 73 75 74 72 71 69 67 67 67 67 65 64 63 63 62 62 62 59 57 56 60 63 64 66 67 68 66 67
80 78 76 74 75 76 77 76 75 74 74 74 74 71 69 70 70 72 73 70 69 69 68 68 67 67 65 64 64 64 63 61 58 58 59 60 59 62 65 66 65 67 66

GFSSE_sfc_temp_033.txt.gz
Temp
76 77 79 79 79 79 79 79 78 78 78 78 78 78 78 77 78 78 77 77 77 78 78 78 78 78 78 78 79 78 78 79 79 79 79 79 79 79 79 80 81 81 79
77 77 79 79 79 79 79 78 78 77 77 77 78 78 78 77 78 77 77 77 77 77 77 78 78 78 78 78 78 78 78 78 78 78 79 79 79 80 79 80 81 79 79
76 76 78 78 79 79 78 78 77 77 77 77 78 78 77 77 78 77 77 77 77 77 78 78 78 78 78 78 78 78 78 78 78 78 79 73 74 80 80 79 80 79 79
77 75 76 78 78 78 78 77 77 77 77 77 77 78 77 77 77 77 77 77 77 77 78 78 78 78 78 78 78 77 77 78 78 78 73 74 75 81 82 80 80 79 79
77 76 76 78 78 78 78 77 77 77 77 77 77 78 78 77 77 77 77 77 77 78 78 78 78 78 78 78 78 77 77 77 77 77 72 70 69 80 82 80 80 79 78
78 78 78 78 78 78 78 77 77 77 77 77 77 77 77 77 77 77 77 77 77 78 78 78 78 78 78 78 78 77 77 77 77 73 72 73 74 79 80 80 80 79 78
79 79 78 78 78 78 78 78 77 77 77 77 77 77 77 77 77 77 77 77 77 77 78 78 77 77 77 76 76 76 77 77 75 72 72 72 73 78 79 79 79 79 78
82 80 77 78 77 77 78 77 77 76 76 77 77 77 77 77 77 77 77 77 77 77 77 77 77 76 76 75 75 75 76 77 76 72 73 73 75 77 79 78 77 78 78
86 81 77 77 77 77 77 77 76 76 76 76 76 76 76 76 76 76 76 77 77 76 77 77 76 75 75 75 75 75 75 76 72 70 74 72 77 79 79 78 77 77 77
86 81 77 76 77 75 75 77 76 76 76 76 76 76 76 76 76 76 75 75 77 76 76 76 76 75 75 74 74 74 75 76 71 70 70 71 77 79 79 78 78 77 77
86 80 78 76 75 75 75 76 76 77 76 76 76 76 74 71 71 73 75 75 76 76 76 76 75 75 74 74 74 74 75 68 69 69 70 75 78 79 79 78 77 77 76
82 79 79 77 75 75 78 75 73 74 74 73 72 71 70 69 68 74 74 76 76 76 76 75 75 75 74 67 67 73 69 68 68 68 70 76 78 79 78 78 77 76 76
86 81 80 79 77 76 78 75 73 73 72 71 70 69 69 71 70 71 68 71 71 75 71 72 71 70 68 67 66 66 70 70 69 70 73 77 78 79 78 78 77 77 76
84 83 82 81 78 77 79 76 73 73 72 71 71 69 69 70 69 68 67 67 66 67 66 65 66 68 66 69 72 71 69 72 69 70 68 76 77 79 78 78 77 77 76
81 82 81 77 79 79 78 77 74 74 73 73 72 72 72 70 69 68 68 66 65 66 66 65 66 68 65 67 71 73 72 72 72 71 67 77 76 77 77 78 78 77 77
80 82 82 77 78 80 79 77 76 76 75 74 74 73 73 72 69 68 67 67 66 67 66 66 66 65 65 65 66 69 70 71 72 68 70 67 75 75 76 76 78 78 77
81 83 80 77 73 77 79 74 77 77 76 76 75 74 74 71 69 68 67 66 66 66 66 65 65 65 64 65 65 66 66 69 71 68 68 68 71 74 75 76 77 77 77
79 80 78 81 74 73 75 72 74 75 72 73 71 72 73 70 70 68 66 66 66 65 64 63 63 62 62 62 61 62 63 65 66 70 68 67 67 70 73 74 75 76 77
80 78 77 73 72 71 71 71 72 72 71 70 70 68 71 70 71 68 66 66 66 64 64 63 62 62 61 61 61 61 62 63 65 68 67 68 67 69 69 72 74 74 75
77 75 75 72 71 71 71 71 70 70 70 70 70 66 69 70 71 68 66 65 65 63 62 62 62 61 61 60 62 62 62 62 63 63 64 69 67 68 68 68 71 71 73
74 74 73 70 70 73 73 70 67 66 68 71 69 71 70 70 70 68 68 65 64 63 62 62 61 60 59 60 59 60 59 61 61 62 63 64 66 68 67 66 66 67 69
71 70 70 69 70 69 71 68 69 68 69 69 69 70 70 71 69 67 65 64 62 62 62 62 62 58 58 59 58 58 55 57 59 62 62 65 63 67 68 67 66 67 66
69 68 69 69 69 69 70 69 68 67 66 66 65 66 68 70 69 67 66 63 63 63 60 60 60 59 57 58 59 56 52 52 55 59 62 62 65 63 64 65 66 65 65
68 69 69 69 69 70 70 68 66 64 63 65 66 66 67 70 71 67 66 64 63 62 61 61 62 60 59 58 58 61 59 57 53 53 58 60 61 63 62 62 64 64 64
69 67 67 68 68 69 68 68 66 65 65 66 65 65 65 65 67 68 66 64 63 62 62 62 61 60 59 58 57 57 57 57 58 54 52 56 58 60 62 62 62 62 64
69 68 68 66 67 68 68 67 67 65 64 64 62 62 62 63 63 66 67 64 63 62 62 61 61 61 61 60 61 60 58 56 55 54 53 54 55 58 60 61 62 62 62

GFSSE_sfc_temp_036.txt.gz
Temp
74 75 79 79 78 78 78 78 78 78 78 78 78 78 77 77 77 77 77 77 77 78 78 78 77 77 77 78 78 78 78 78 78 78 78 78 75 79 79 80 80 80 79
76 75 78 78 79 79 78 78 78 77 77 77 78 77 77 77 77 77 77 77 77 77 77 77 77 77 77 77 77 77 77 78 77 78 78 78 78 76 79 80 80 78 79
76 75 77 78 78 78 78 78 77 77 77 77 77 77 77 77 77 77 77 77 77 77 77 77 77 77 77 77 77 77 77 77 77 77 78 71 72 79 80 80 80 78 78
75 74 75 78 78 78 78 77 77 77 77 77 77 77 77 77 77 77 77 77 77 77 77 77 77 78 77 77 77 77 77 77 77 77 71 71 71 78 80 80 80 80 78
74 74 74 78 78 78 78 77 77 77 77 77 77 77 77 77 77 77 77 77 77 77 78 78 78 78 78 78 77 77 77 77 76 76 70 67 66 76 80 80 80 79 79
74 75 76 77 78 78 78 77 77 77 77 77 77 77 77 77 77 76 76 77 77 77 78 78 78 78 78 78 77 77 77 76 77 71 70 70 71 75 79 79 80 79 78
74 75 76 77 77 78 78 77 77 77 76 77 77 77 77 77 76 76 76 76 77 77 77 77 77 76 76 76 76 76 76 77 74 70 70 69 70 75 79 79 79 78 78
76 75 75 77 77 77 77 77 77 76 76 76 77 77 77 76 76 76 76 77 77 77 77 77 77 76 76 75 75 75 75 76 76 70 70 69 73 76 79 78 78 78 78
79 76 75 76 76 78 77 77 76 76 76 76 76 76 76 76 76 76 76 76 76 76 76 76 76 76 75 75 75 75 75 76 71 69 71 69 75 77 79 78 78 78 77
78 78 75 75 75 75 75 77 76 76 76 76 76 76 76 76 76 76 75 75 76 76 76 76 76 75 75 74 74 74 75 76 70 68 68 68 75 77 79 77 78 77 77
79 76 75 74 75 75 74 76 76 77 76 76 76 76 74 71 71 72 74 75 76 76 76 76 75 75 75 74 74 74 75 67 67 67 67 72 75 78 80 78 77 77 76
79 76 74 74 74 74 76 74 73 73 73 73 72 71 71 68 67 72 73 75 76 76 76 75 75 75 74 67 66 72 67 66 66 67 66 73 75 77 79 78 77 76 76
81 79 76 74 73 73 75 73 73 72 71 71 70 69 69 69 68 69 66 69 70 74 71 73 71 69 67 65 64 64 66 67 66 67 71 74 75 77 79 78 77 77 76
82 78 77 76 74 72 74 73 72 71 71 70 70 69 68 67 66 65 66 66 66 67 66 65 64 65 65 66 66 65 66 67 67 66 66 74 75 77 79 78 77 76 76
80 79 77 76 74 73 73 73 71 71 71 71 69 68 69 67 66 66 67 65 65 64 64 63 63 64 64 67 66 67 68 69 70 66 67 73 76 76 78 78 76 77 77
80 79 73 75 76 75 74 73 72 71 71 71 70 69 69 69 68 67 65 64 63 64 64 67 67 63 64 65 65 66 67 66 68 68 66 66 75 74 76 77 77 76 77
79 78 73 73 75 74 75 74 73 72 72 71 70 70 70 70 69 68 66 64 64 63 64 65 64 62 62 63 64 65 64 65 66 67 65 65 68 74 75 76 76 76 77
74 76 76 78 72 73 74 73 74 73 72 72 71 70 71 71 70 66 65 64 64 63 63 62 62 61 61 61 61 61 61 62 64 65 66 65 66 67 73 75 75 75 76
74 76 74 73 70 71 69 71 73 71 72 68 69 69 70 70 69 66 64 64 64 63 62 62 61 61 60 59 60 60 60 61 63 66 66 66 65 65 66 71 73 74 75
73 73 71 71 68 67 69 67 67 67 66 68 68 67 69 69 69 65 65 64 64 62 61 61 60 60 60 59 61 62 60 61 61 62 63 66 65 66 66 66 67 69 73
71 71 69 68 67 69 70 67 66 65 65 65 65 69 68 67 67 65 64 63 63 62 61 61 60 60 60 59 58 57 59 61 61 61 61 62 65 66 65 64 64 65 68
71 69 67 67 68 68 68 66 66 66 65 66 67 68 69 68 67 66 64 63 63 61 61 60 60 58 58 58 56 57 55 58 59 60 60 61 61 63 65 66 65 65 65
68 67 67 67 67 67 67 68 65 66 65 64 63 63 65 68 67 66 64 63 62 61 60 59 59 58 56 56 57 54 51 53 56 58 59 60 61 60 62 64 64 65 64
65 66 66 67 67 68 67 67 68 63 62 62 63 63 64 67 66 66 64 63 62 61 60 59 60 58 57 56 57 59 57 56 52 52 57 59 60 60 61 62 63 63 64
65 65 66 66 66 66 67 68 65 62 62 62 62 62 63 64 65 66 64 63 61 60 60 60 60 59 58 57 56 55 56 56 56 53 52 55 58 58 60 61 62 64 64
65 66 66 65 64 66 66 65 64 64 61 60 61 61 61 61 62 64 64 62 61 60 60 60 60 59 58 58 58 58 56 54 53 54 51 53 54 57 59 61 61 62 61

GFSSE_sfc_temp_042.txt.gz
Temp
71 74 79 79 79 79 79 79 78 78 78 78 78 78 78 77 78 78 78 77 77 78 78 78 78 77 77 78 77 77 77 77 77 78 78 78 76 76 77 80 80 81 79
73 75 78 78 79 79 79 78 78 78 77 78 78 78 78 77 78 78 77 77 77 78 78 78 77 77 77 77 77 77 77 77 77 77 78 76 76 76 75 78 80 80 79
73 75 77 78 78 78 78 78 77 77 77 77 78 78 77 77 78 78 77 77 78 78 78 78 77 77 77 77 77 76 76 76 76 76 77 72 72 77 77 74 80 79 79
73 74 75 78 78 78 78 78 77 77 77 77 77 77 77 77 77 77 77 77 78 78 78 78 77 77 77 77 77 76 76 76 76 76 72 71 71 75 78 79 79 79 79
72 74 74 78 78 78 78 77 77 77 77 77 77 78 78 77 77 77 77 77 78 78 78 78 77 77 77 77 77 77 76 76 76 76 72 70 70 74 77 78 79 79 79
72 74 76 78 78 78 78 77 77 77 77 77 78 78 78 77 77 76 77 77 77 78 78 78 77 77 77 77 77 77 77 77 76 73 71 71 72 73 76 78 79 79 78
71 72 74 77 77 78 78 77 77 77 77 77 77 77 77 77 76 76 77 77 77 77 77 77 77 77 76 76 76 76 75 76 76 73 72 71 71 73 77 78 79 78 78
72 71 72 77 77 77 77 77 77 76 76 76 77 77 77 76 76 76 76 77 77 77 77 77 77 76 76 75 75 75 75 75 76 73 72 71 71 74 77 78 78 78 78
73 71 71 75 76 78 77 77 76 76 76 76 76 76 76 76 76 76 76 76 76 76 76 76 76 76 75 75 75 75 75 75 74 72 73 72 72 75 77 78 78 78 78
71 71 69 70 74 74 74 77 76 76 76 76 76 76 76 76 76 76 75 75 76 76 76 76 76 76 75 74 74 74 74 75 73 71 71 71 73 75 77 78 78 78 77
72 69 69 69 71 72 72 74 76 77 76 76 76 76 74 72 72 74 74 75 76 76 76 76 76 75 75 74 74 74 74 70 70 70 70 71 73 75 76 77 78 77 77
71 70 71 71 71 71 74 70 73 72 73 73 73 72 72 69 69 71 73 75 76 76 76 76 75 75 75 71 70 72 70 69 69 69 70 72 73 75 76 77 78 77 77
80 75 72 71 70 70 72 70 71 71 71 70 70 69 70 69 69 71 68 71 70 74 71 73 73 72 70 69 68 67 68 67 68 69 70 72 73 75 76 77 77 77 77
75 76 74 73 71 69 72 71 72 71 70 70 70 68 68 68 66 67 67 67 67 68 69 69 69 69 69 68 68 67 67 67 68 68 68 72 73 74 76 77 78 77 77
74 75 73 72 72 71 69 71 70 70 71 70 69 68 69 68 66 65 66 66 66 66 67 67 67 67 67 67 68 67 68 68 68 69 68 70 72 74 75 77 78 78 78
73 73 75 71 72 72 69 70 70 71 70 68 68 68 69 68 65 65 65 65 64 65 66 67 67 66 66 66 66 67 67 67 68 68 69 68 71 73 75 77 78 78 78
72 72 70 71 70 70 70 71 71 70 70 69 69 68 68 67 65 65 64 64 63 65 66 65 65 65 64 65 65 66 67 67 68 67 68 68 70 71 73 75 76 76 76
70 71 71 72 68 69 70 71 71 70 69 69 68 67 68 67 66 65 64 63 65 64 64 64 64 64 64 63 63 64 64 64 66 67 68 67 69 69 71 75 76 76 75
70 69 70 65 67 68 69 69 68 67 67 67 67 67 67 67 67 65 64 64 64 63 63 63 63 64 63 62 62 63 62 62 64 67 67 67 68 69 68 71 73 74 74
70 67 66 65 65 65 65 64 64 65 65 66 66 66 67 67 67 65 65 65 64 63 62 62 63 62 63 62 62 62 62 62 64 64 65 68 68 69 68 68 71 74 73
67 65 65 64 61 64 64 63 63 64 65 65 66 67 67 67 67 66 65 65 64 63 63 63 62 62 61 62 61 60 61 62 63 64 63 66 67 68 68 68 67 69 72
66 67 64 62 61 64 64 62 63 63 63 64 65 67 68 68 67 67 66 64 64 62 62 62 62 61 60 61 59 57 57 59 61 63 63 64 65 65 68 68 65 66 69
64 65 64 62 63 63 63 63 61 62 62 62 63 64 66 67 68 68 65 64 63 63 62 62 62 61 58 59 60 58 54 55 57 61 61 60 64 63 65 66 66 66 68
68 64 63 63 63 64 64 63 64 62 62 61 62 63 65 67 67 65 64 64 63 62 61 61 61 61 59 57 58 60 59 59 56 56 58 59 62 63 62 64 66 67 67
65 62 63 63 64 64 64 65 64 61 61 61 62 62 63 64 65 65 65 65 64 62 62 61 60 59 59 58 58 57 58 57 58 57 55 58 60 61 62 63 64 66 66
61 61 63 63 62 63 64 64 64 62 61 62 60 61 61 61 62 64 64 64 63 62 61 61 61 60 59 60 59 59 58 57 56 57 55 56 57 59 62 61 62 63 64

GFSSE_sfc_temp_045.txt.gz
Temp
84 87 79 79 79 79 79 79 78 78 78 78 79 79 78 78 78 78 78 78 78 78 79 78 78 78 78 78 77 77 77 77 77 78 78 78 78 77 77 80 81 86 79
87 86 79 79 79 79 79 79 78 78 78 78 78 78 78 78 78 78 78 78 78 78 78 78 78 78 78 78 77 77 77 77 77 77 78 77 77 78 76 75 81 84 79
86 85 83 79 79 79 79 78 78 78 77 78 78 78 78 78 78 78 78 78 78 78 78 78 78 78 77 77 77 77 77 77 77 77 76 85 82 78 78 78 78 80 78
86 84 85 78 79 79 78 78 77 77 77 78 78 78 78 77 78 78 78 78 79 79 78 78 78 77 77 77 77 77 76 76 76 77 84 83 83 77 77 79 77 75 79
85 86 84 78 78 78 78 78 77 77 77 77 78 78 78 77 77 77 77 78 78 79 79 78 78 77 77 77 77 77 76 76 76 79 82 82 83 81 76 77 80 78 78
87 87 83 78 78 78 78 78 77 77 77 77 78 78 77 77 77 77 77 77 78 78 78 78 77 77 77 77 77 77 77 77 77 83 82 81 81 75 76 78 79 79 78
87 87 86 78 78 78 78 78 77 77 77 77 77 78 77 77 77 77 77 77 78 78 78 78 77 77 77 76 76 76 75 76 82 83 82 80 81 73 76 78 79 79 78
85 83 85 79 77 77 78 78 77 77 77 77 77 77 77 77 77 77 77 77 77 77 77 77 77 77 76 75 75 75 75 75 81 81 81 82 76 74 76 77 79 79 78
85 83 83 84 81 77 77 77 77 76 76 77 77 77 77 77 76 76 76 77 77 77 77 77 77 76 76 75 75 75 75 75 81 82 82 83 75 75 77 77 78 79 78
85 85 82 82 85 83 82 77 77 76 76 76 76 76 76 76 76 76 75 76 77 77 77 77 76 76 75 75 75 75 75 75 82 81 82 83 73 75 76 77 78 78 78
84 83 83 84 83 83 84 82 77 77 77 76 77 76 76 81 81 80 78 77 76 76 76 76 76 75 75 75 75 74 74 83 80 81 83 75 73 75 76 77 77 78 78
87 86 84 81 82 82 83 81 81 82 82 82 81 81 81 81 81 81 80 76 76 76 76 76 76 76 76 83 83 76 83 81 81 81 82 74 73 75 76 77 77 77 77
92 90 86 79 79 81 82 82 82 83 82 81 80 80 80 81 80 80 81 81 80 77 82 80 81 82 82 82 81 81 81 80 83 82 80 73 73 75 76 76 77 77 77
92 89 88 82 78 78 83 81 81 83 82 81 81 78 79 79 77 79 80 81 79 81 79 79 81 80 80 79 80 79 79 80 82 82 81 73 73 74 75 76 77 77 77
87 89 88 84 79 78 76 81 80 80 82 82 81 79 79 79 77 78 78 80 80 78 77 79 79 77 78 79 79 78 79 79 79 81 81 73 72 74 75 76 77 77 78
87 86 87 84 82 80 77 77 78 79 81 81 81 80 77 79 77 77 77 77 76 75 77 78 76 77 75 77 78 77 78 79 79 78 81 81 72 73 75 76 77 78 78
87 85 85 84 83 79 79 79 79 81 80 81 80 78 76 77 75 75 77 76 77 76 75 74 75 76 76 74 76 78 78 78 79 77 78 80 81 72 73 75 76 77 77
83 83 84 86 84 80 79 80 80 81 80 80 80 79 76 75 75 74 76 76 75 76 74 75 77 77 73 73 76 77 78 77 77 72 78 79 80 81 77 74 75 76 77
82 82 82 82 81 80 79 80 79 78 78 80 79 78 75 75 75 75 76 73 73 74 74 74 75 75 71 71 75 75 74 71 72 70 71 77 78 79 81 76 74 75 75
81 80 77 79 77 77 79 77 79 79 79 79 78 77 75 75 75 75 75 72 72 70 73 70 73 74 75 74 71 71 73 73 70 72 72 77 78 78 79 78 78 80 74
79 77 77 78 77 76 77 76 76 75 76 76 77 76 75 76 75 73 76 72 72 70 69 72 74 72 71 66 68 70 72 72 71 72 72 76 77 77 78 77 77 81 81
80 78 79 78 76 75 77 76 78 77 73 72 77 76 76 75 73 74 74 68 67 73 73 72 71 70 70 68 65 65 67 69 72 73 74 71 66 73 77 77 77 77 79
79 79 79 78 76 74 75 75 74 74 73 72 74 74 72 75 74 75 70 69 73 75 74 72 72 70 65 63 65 68 66 66 70 72 70 68 69 68 74 76 76 76 76
81 82 79 77 75 74 74 75 73 77 75 77 75 77 75 75 75 72 70 75 74 76 74 72 68 67 65 65 62 70 70 71 66 65 70 66 66 67 70 71 74 68 74
82 80 78 75 74 74 74 76 76 76 77 76 76 73 74 74 74 73 75 74 74 74 71 72 68 64 66 70 70 65 66 70 70 68 63 63 61 69 74 65 71 75 75
81 78 75 74 73 73 74 74 75 73 73 74 74 74 74 75 74 75 75 74 74 72 72 72 71 69 67 70 71 70 70 69 69 68 65 63 61 61 65 63 67 67 70

GFSSE_sfc_temp_048.txt.gz
Temp
98 98 80 80 79 79 79 79 79 79 79 79 79 79 79 79 79 79 79 78 79 79 79 79 79 79 79 79 78 78 78 78 78 78 78 78 78 78 78 79 82 87 79
102 97 79 79 79 79 79 79 79 78 78 78 79 79 78 78 79 78 78 78 79 79 79 79 79 79 79 79 78 78 78 77 78 78 78 78 79 79 78 79 77 83 79
100 95 86 79 79 79 79 79 78 78 78 78 78 78 78 78 78 78 78 78 79 79 79 79 79 79 78 78 78 77 77 77 77 77 78 90 90 78 79 79 77 79 79
99 93 91 79 79 79 79 78 78 78 78 78 78 78 78 78 78 78 78 78 79 79 79 79 79 78 78 78 78 77 77 77 77 77 88 92 91 78 78 78 79 75 74
97 96 92 79 79 79 79 78 78 77 77 78 78 78 78 78 78 77 78 78 79 79 79 79 78 78 78 78 77 77 77 77 77 80 89 90 89 82 77 78 80 77 75
101 99 88 78 78 79 79 78 78 78 77 78 78 78 78 78 77 77 77 78 79 79 79 79 78 78 78 77 77 77 77 77 77 90 88 85 86 77 76 78 79 79 77
103 101 95 78 78 79 79 78 78 78 77 78 78 78 78 77 77 77 77 78 79 79 79 78 78 77 77 77 77 77 76 76 84 90 88 86 87 75 76 78 79 79 79
102 99 98 80 78 78 78 78 78 77 77 77 77 78 77 77 77 77 77 77 78 78 78 78 78 77 77 76 76 76 76 75 85 88 88 88 78 75 77 77 79 80 79
101 98 97 91 83 78 78 77 77 77 77 77 77 77 77 77 77 77 77 77 77 77 77 78 77 77 77 76 76 76 75 76 84 88 88 89 76 75 77 77 78 79 79
101 101 96 93 93 88 87 78 77 77 77 77 77 77 77 77 77 76 76 76 77 77 77 77 77 77 76 76 76 75 75 76 84 88 88 90 76 75 77 77 78 78 79
103 100 98 97 95 93 93 89 78 77 77 77 77 77 77 85 84 84 80 78 77 77 77 77 77 76 76 76 75 75 75 88 88 88 90 76 74 75 76 77 77 78 78
102 100 99 94 94 94 95 91 86 88 87 85 86 84 84 86 87 87 84 77 76 77 76 76 76 76 77 88 86 77 86 90 88 88 90 75 74 75 76 77 77 77 78
104 104 100 92 90 91 93 93 91 90 89 88 85 85 85 87 87 87 88 85 83 78 85 82 78 83 85 88 90 88 90 87 90 90 85 75 74 75 76 77 77 77 77
101 101 100 97 88 87 92 91 92 92 92 90 89 85 85 86 86 85 87 88 84 87 84 86 86 83 85 86 86 86 86 86 89 89 86 75 74 74 76 77 77 77 78
98 100 100 98 90 85 84 93 92 91 93 92 90 87 86 87 85 86 86 88 88 89 88 87 85 85 84 84 86 85 85 84 85 86 88 75 73 74 75 76 77 78 78
97 98 100 97 93 89 86 86 89 88 92 91 91 90 84 86 85 86 84 86 88 89 90 86 86 85 84 85 84 83 84 85 85 84 88 80 74 73 74 76 77 78 78
97 97 95 95 94 89 88 88 88 91 91 91 91 88 86 83 84 83 85 85 87 87 85 85 84 83 84 83 82 80 82 83 85 83 84 83 79 74 74 75 76 77 78
94 93 95 98 98 93 89 90 91 92 91 90 91 89 84 82 82 81 84 84 86 85 85 84 83 82 83 80 77 78 78 81 84 82 82 83 81 82 75 75 75 76 77
92 91 93 94 94 91 89 89 89 88 88 90 90 89 85 82 82 82 83 85 83 84 84 83 81 81 82 77 78 76 77 79 81 79 79 81 81 83 81 74 75 75 76
91 90 89 90 88 86 87 87 90 90 89 89 89 88 85 83 82 81 84 83 81 81 82 82 79 83 79 76 76 79 78 77 75 77 79 81 78 81 83 82 82 82 75
89 87 88 87 85 85 88 88 88 87 87 88 88 85 83 83 82 79 84 77 79 80 79 79 79 76 75 79 75 73 75 78 77 78 78 78 78 80 81 82 83 79 81
87 87 86 87 86 84 87 86 90 89 90 88 87 83 83 83 80 77 81 80 79 81 78 77 77 79 79 75 73 76 72 70 74 73 73 75 76 75 80 82 82 82 77
87 88 87 86 85 84 84 86 84 86 83 82 83 83 81 80 76 78 81 81 78 81 80 77 77 77 72 74 75 70 64 64 68 75 73 73 73 73 69 78 78 79 81
88 91 90 87 84 85 83 84 81 84 82 85 85 84 76 78 78 81 80 79 78 83 80 79 79 75 74 70 68 74 75 75 69 65 70 70 72 71 70 77 76 77 79
90 90 90 86 85 85 82 83 82 84 87 86 86 77 79 77 79 81 79 80 80 82 80 79 75 74 75 74 75 74 72 75 74 68 63 68 72 75 69 73 69 76 79
90 90 88 85 84 83 81 81 81 82 83 84 82 81 81 78 79 80 82 81 81 81 79 76 74 72 73 77 75 73 75 74 71 70 67 67 70 70 70 73 73 72 74